Location: Tierra del Sol
(32.6128°N, 116.3319°W)
Time: 05:01:16
(UTC-08:00)

Amateur Radio Satellites - All Passes

Search period start: 17 January 2017 04:31
Search period end: 18 January 2017 04:31
Location: Tierra del Sol, 32.6128°N, 116.3319°W

Satellite Date Start Highest point End Downlink Frequencies (MHz)
Time Altitude Azimuth
CUTE-I 17 Jan 04:42:17 04:42:52 10° 92° (E) 04:43:27 437.470
GOMX 1 17 Jan 04:48:55 04:52:50 30° 96° (E) 04:56:34 467.674
CUSAT 1 17 Jan 04:49:35 04:51:02 11° 298° (WNW) 04:52:35 437.405
AIST 2 17 Jan 04:56:03 05:00:00 37° 58° (ENE) 05:03:55 435.215
DANDE 17 Jan 05:00:16 05:02:54 22° 289° (WNW) 05:06:07 436.750
HORYU 2 17 Jan 05:01:28 05:05:51 55° 101° (E) 05:10:13 437.375
STARS 17 Jan 05:01:50 05:04:30 16° 265° (W) 05:07:10 437.465
CUBESAT XI-V 17 Jan 05:02:14 05:05:27 18° 266° (W) 05:08:41 437.345
STRAND 1 17 Jan 05:16:24 05:19:31 17° 66° (ENE) 05:22:38 437.568
Cubesat XI-IV 17 Jan 05:20:38 05:25:12 28° 97° (E) 05:29:45 437.490
O/OREOS (USA 219) 17 Jan 05:27:22 05:30:09 16° 100° (E) 05:32:56 437.305
NOAA 15 17 Jan 05:42:45 05:47:55 52° 100° (E) 05:53:04 137.62
DOVE 4 17 Jan 05:46:49 05:50:54 52° 100° (E) 05:54:55 437.250
HO-68 17 Jan 05:50:18 05:51:21 10° 91° (E) 05:52:23 435.675
Cosmos 2499 17 Jan 05:54:51 06:00:34 25° 74° (ENE) 06:06:13 435.465 / 435.565
AO-7 17 Jan 06:01:19 06:02:28 10° 309° (NW) 06:03:38 29.400- 29.500
PHONESAT 2.4 17 Jan 06:03:54 06:05:12 13° 8° (N) 06:06:29 2401.200-2431.200
BRITE-PL 17 Jan 06:05:27 06:07:45 13° 295° (WNW) 06:09:59 437.365/2234.400
CINEMA 3 17 Jan 06:06:27 06:09:09 17° 95° (E) 06:11:53 145.822/145.860
LilacSat-2 17 Jan 06:09:18 06:13:06 56° 284° (WNW) 06:16:53 437.200
ISS 17 Jan 06:11:52 06:15:04 55° 42° (NE) 06:18:15 145.825
CUTE-I 17 Jan 06:18:00 06:23:19 73° 285° (WNW) 06:28:39 437.470
GONETS M04 17 Jan 06:23:58 06:32:07 40° 77° (ENE) 06:40:14
RS-15 17 Jan 06:25:17 06:32:47 17° 29° (NNE) 06:40:11 29.354- 29.394
GOMX 1 17 Jan 06:27:44 06:30:38 17° 292° (WNW) 06:33:26 467.674
NOAA 18 17 Jan 06:34:04 06:39:32 81° 103° (ESE) 06:44:59 137.9125
AIST 2 17 Jan 06:35:37 06:38:07 15° 251° (WSW) 06:40:36 435.215
HORYU 2 17 Jan 06:40:37 06:41:52 11° 294° (WNW) 06:43:05 437.375
CUTE 1.7 + AOD 2 17 Jan 06:52:53 06:56:47 33° 98° (E) 07:00:40 437.475
STRAND 1 17 Jan 06:53:22 06:58:15 47° 260° (W) 07:03:10 437.568
Cubesat XI-IV 17 Jan 07:00:37 07:05:08 29° 291° (WNW) 07:09:39 437.490
O/OREOS (USA 219) 17 Jan 07:05:08 07:09:13 34° 294° (WNW) 07:13:17 437.305
CANX-2 17 Jan 07:20:59 07:25:19 88° 276° (W) 07:29:36 2200.000
NOAA 15 17 Jan 07:23:59 07:27:13 17° 295° (WNW) 07:30:26 137.62
CUBEBUG 2 17 Jan 07:25:02 07:28:54 31° 98° (E) 07:32:52 437.445
HO-68 17 Jan 07:32:37 07:39:51 84° 106° (ESE) 07:47:00 435.675
PHONESAT 2.4 17 Jan 07:37:29 07:39:44 44° 23° (NNE) 07:41:59 2401.200-2431.200
Oscar 11 17 Jan 07:37:31 07:39:13 12° 93° (E) 07:40:54 145.826/435.025
SEEDS 17 Jan 07:39:51 07:44:08 85° 102° (ESE) 07:48:22 437.485
CINEMA 3 17 Jan 07:42:39 07:46:17 29° 287° (WNW) 07:49:59 145.822/145.860
SO-50 17 Jan 07:45:18 07:49:57 57° 115° (ESE) 07:54:32 436.795
Cosmos 2499 17 Jan 07:47:11 07:53:48 43° 270° (W) 08:00:21 435.465 / 435.565
COMPASS 1 17 Jan 07:52:21 07:56:35 77° 102° (ESE) 08:00:46 437.405
UWE-3 17 Jan 08:00:55 08:05:11 53° 100° (E) 08:09:33 435.000/436.395/437.385
UNISAT 6 17 Jan 08:01:17 08:02:02 10° 67° (ENE) 08:02:47 437.425
FUNcube-1 17 Jan 08:07:19 08:11:15 32° 98° (E) 08:15:14 145.935
AAUSAT CUBESAT 2 17 Jan 08:07:26 08:11:38 88° 101° (ESE) 08:15:48 437.432
TIGRISAT 17 Jan 08:14:09 08:16:26 14° 68° (ENE) 08:18:43 435.000
NOAA 18 17 Jan 08:18:08 08:19:26 11° 298° (WNW) 08:20:43 137.9125
GONETS M04 17 Jan 08:20:53 08:28:44 38° 273° (W) 08:36:35
DELFI C3 17 Jan 08:23:34 08:25:08 12° 93° (E) 08:26:42 145.870
ANTELSAT 17 Jan 08:27:19 08:30:37 22° 71° (ENE) 08:33:54 437.575/2403.000
ZACube-1 17 Jan 08:27:54 08:32:16 65° 101° (ESE) 08:36:41 437.345
CUTE 1.7 + AOD 2 17 Jan 08:29:38 08:32:18 16° 291° (WNW) 08:34:57 437.475
RS-15 17 Jan 08:36:39 08:48:47 59° 56° (NE) 09:00:21 29.354- 29.394
PRISM 17 Jan 08:39:57 08:44:03 58° 259° (W) 08:48:10 437.425
CUBEBUG 2 17 Jan 09:02:23 09:05:16 18° 290° (WNW) 09:08:12 437.445
HUMSAT D 17 Jan 09:11:17 09:14:56 27° 97° (E) 09:18:35 437.325/437.525
Oscar 11 17 Jan 09:11:21 09:15:30 44° 286° (WNW) 09:19:38 145.826/435.025
PHONESAT 2.4 17 Jan 09:12:26 09:13:45 14° 216° (SW) 09:15:03 2401.200-2431.200
HO-68 17 Jan 09:22:43 09:26:38 16° 301° (WNW) 09:30:32 435.675
SO-50 17 Jan 09:28:03 09:30:43 15° 310° (NW) 09:33:24 436.795
UNISAT 6 17 Jan 09:34:04 09:38:15 52° 260° (W) 09:42:25 437.425
UWE-3 17 Jan 09:39:55 09:41:11 11° 293° (WNW) 09:42:26 435.000/436.395/437.385
PCSat 17 Jan 09:40:02 09:44:22 24° 55° (NE) 09:48:40 145.827
FUNcube-1 17 Jan 09:44:16 09:47:13 18° 290° (WNW) 09:50:11 145.935
TIGRISAT 17 Jan 09:48:49 09:52:47 37° 261° (W) 09:56:44 435.000
DELFI C3 17 Jan 09:56:21 10:00:02 36° 286° (WNW) 10:03:41 145.870
ANTELSAT 17 Jan 10:03:44 10:07:11 23° 264° (W) 10:10:36 437.575/2403.000
BY70-1 17 Jan 10:06:27 10:09:14 24° 96° (E) 10:11:54 436.1900
QB50P1 17 Jan 10:09:44 10:13:22 29° 72° (ENE) 10:17:01 145.935-145.965
POLYITAN 1 17 Jan 10:12:39 10:16:22 32° 73° (ENE) 10:20:06 437.675
QB50P2 17 Jan 10:13:37 10:17:28 35° 73° (ENE) 10:21:18 145.880/145.840
JAS-2 17 Jan 10:18:13 10:23:24 79° 257° (WSW) 10:28:56 435.910
CUBEBUG 1 17 Jan 10:29:21 10:31:23 13° 94° (E) 10:33:23 437.445
POPSAT HIP 1 17 Jan 10:35:44 10:39:51 61° 76° (ENE) 10:44:00 437.405
ESTCUBE 1 17 Jan 10:41:45 10:45:56 35° 98° (E) 10:50:04 437.505/2401.250
HUMSAT D 17 Jan 10:47:12 10:50:18 20° 290° (WNW) 10:53:26 437.325/437.525
RS-15 17 Jan 10:50:03 11:00:36 37° 255° (WSW) 11:10:47 29.354- 29.394
DUCHIFAT 1 17 Jan 10:50:57 10:55:07 82° 78° (ENE) 10:59:18 145.980
NANOSAT C BR1 17 Jan 10:54:37 10:58:48 80° 258° (WSW) 11:03:00 145.865
VELOX 1 17 Jan 11:08:42 11:12:14 23° 96° (E) 11:15:45 145.980
Oscar 19 17 Jan 11:17:29 11:20:24 15° 66° (ENE) 11:23:20 437.125/150
PCSat 17 Jan 11:22:49 11:27:50 39° 251° (WSW) 11:32:49 145.827
BY70-1 17 Jan 11:37:49 11:39:19 13° 291° (WNW) 11:40:48 436.1900
BUGSAT 1 17 Jan 11:39:52 11:43:58 74° 259° (WSW) 11:48:02 437.445
50 SAT 17 Jan 11:40:54 11:44:18 42° 99° (E) 11:47:40 437.505
QB50P1 17 Jan 11:46:21 11:49:07 17° 265° (W) 11:51:54 145.935-145.965
POLYITAN 1 17 Jan 11:49:39 11:52:11 16° 265° (W) 11:54:42 437.675
QB50P2 17 Jan 11:51:06 11:53:20 14° 266° (W) 11:55:33 145.880/145.840
DX 1 17 Jan 11:52:00 11:55:57 34° 99° (E) 11:59:53 434.975-435.025
UKube-1 17 Jan 11:58:13 12:01:57 28° 98° (E) 12:05:40 .
SPROUT 17 Jan 12:02:44 12:06:59 81° 103° (ESE) 12:11:13 437.525
CUBEBUG 1 17 Jan 12:03:44 12:07:47 40° 286° (WNW) 12:11:47 437.445
AISAT 17 Jan 12:10:47 12:15:04 55° 285° (WNW) 12:19:20 437.250
ESTCUBE 1 17 Jan 12:19:29 12:22:24 17° 292° (WNW) 12:25:18 437.505/2401.250
Cosmos 2491 17 Jan 12:34:41 12:42:46 39° 77° (ENE) 12:50:48 435.465 / 435.565
YUBILEINY 17 Jan 12:39:32 12:45:00 18° 81° (E) 12:50:26 435.215
Gurwin Techsat 1B 17 Jan 12:40:54 12:46:03 55° 74° (ENE) 12:51:15 435.225
VELOX 1 17 Jan 12:45:03 12:48:33 24° 290° (WNW) 12:52:01 145.980
Oscar 19 17 Jan 12:54:09 12:59:13 54° 260° (W) 13:04:19 437.125/150
AO-7 17 Jan 13:06:38 13:12:52 24° 59° (ENE) 13:19:05 29.400- 29.500
JUGNU 17 Jan 13:20:40 13:22:30 11° 163° (SSE) 13:24:21 437.505
AO-85 17 Jan 13:28:34 13:33:11 42° 114° (ESE) 13:37:29 145.980
DX 1 17 Jan 13:29:09 13:31:49 16° 292° (WNW) 13:34:29 434.975-435.025
ITAMSAT 1 17 Jan 13:30:17 13:34:45 31° 70° (ENE) 13:39:14 435.822/435.867
UKube-1 17 Jan 13:34:43 13:37:45 19° 291° (WNW) 13:40:46 .
CUSAT 1 17 Jan 13:40:34 13:48:07 44° 76° (ENE) 13:55:08 437.405
TISAT 1 17 Jan 13:42:53 13:46:55 49° 285° (WNW) 13:50:56 437.305
ITUPSAT 1 17 Jan 13:46:21 13:50:21 26° 97° (E) 13:54:20 437.325
DANDE 17 Jan 13:57:12 14:03:03 22° 72° (ENE) 14:09:13 436.750
Cosmos 2504 17 Jan 14:02:09 14:10:03 39° 88° (E) 14:17:38 435.465 / 435.565
AIST 1 17 Jan 14:03:23 14:07:44 70° 276° (W) 14:12:06
BEESAT 17 Jan 14:22:39 14:27:25 70° 102° (ESE) 14:32:11 436.000
Gurwin Techsat 1B 17 Jan 14:23:31 14:26:16 14° 267° (W) 14:29:01 435.225
SWISSCUBE 17 Jan 14:23:54 14:28:42 82° 101° (ESE) 14:33:30 437.505
Cosmos 2491 17 Jan 14:31:34 14:39:25 38° 273° (W) 14:47:17 435.465 / 435.565
YUBILEINY 17 Jan 14:31:56 14:40:43 75° 277° (W) 14:49:35 435.215
MOZHAYETS 4 17 Jan 14:47:51 14:52:07 35° 98° (E) 14:56:22
AO-7 17 Jan 14:56:35 15:04:52 68° 255° (WSW) 15:13:13 29.400- 29.500
JUGNU 17 Jan 15:06:35 15:10:50 20° 172° (S) 15:15:07 437.505
ITAMSAT 1 17 Jan 15:09:57 15:14:08 25° 263° (W) 15:18:21 435.822/435.867
AO-85 17 Jan 15:10:26 15:13:42 18° 306° (NW) 15:16:49 145.980
CUSAT 1 17 Jan 15:22:49 15:29:46 34° 272° (W) 15:36:16 437.405
AUBIESAT-1 17 Jan 15:23:43 15:26:19 21° 101° (ESE) 15:28:53 437.475
ITUPSAT 1 17 Jan 15:24:05 15:28:02 26° 290° (WNW) 15:31:59 437.325
CUBESAT XI-V 17 Jan 15:26:47 15:28:38 12° 92° (E) 15:30:28 437.345
BRITE-PL 17 Jan 15:29:52 15:35:05 40° 72° (ENE) 15:40:21 437.365/2234.400
DANDE 17 Jan 15:38:20 15:46:08 71° 265° (W) 15:54:26 436.750
O/OREOS (USA 219) 17 Jan 15:41:11 15:44:00 16° 61° (ENE) 15:46:48 437.305
KKS-1 17 Jan 15:51:19 15:55:39 55° 101° (E) 15:59:58 437.445
GOMX 1 17 Jan 15:51:37 15:56:03 26° 71° (ENE) 16:00:25 467.674
Cosmos 2504 17 Jan 15:55:13 16:03:16 39° 282° (WNW) 16:11:00 435.465 / 435.565
HORYU 2 17 Jan 15:55:18 15:59:04 29° 71° (ENE) 16:02:51 437.375
CUTE-I 17 Jan 15:59:09 16:01:09 12° 64° (ENE) 16:03:08 437.470
BEESAT 17 Jan 16:04:03 16:04:33 10° 296° (WNW) 16:05:02 436.000
M-CUBED/EXP-1 PRIME 17 Jan 16:18:07 16:21:15 37° 290° (WNW) 16:24:16 437.505
NOAA 18 17 Jan 16:20:07 16:21:24 11° 62° (ENE) 16:22:42 137.9125
SO-50 17 Jan 16:22:16 16:24:57 15° 50° (NE) 16:27:39 436.795
MOZHAYETS 4 17 Jan 16:25:51 16:28:58 18° 291° (WNW) 16:32:04
SRMSAT 17 Jan 16:30:33 16:33:56 15° 166° (SSE) 16:37:20 437.500
YUBILEINY 17 Jan 16:36:42 16:38:58 11° 295° (WNW) 16:41:15 435.215
Cubesat XI-IV 17 Jan 16:38:16 16:42:52 31° 70° (ENE) 16:47:28 437.490
BEESAT 3 17 Jan 16:41:24 16:45:10 53° 300° (WNW) 16:49:01 437.485
LilacSat-2 17 Jan 16:46:48 16:50:10 32° 74° (ENE) 16:53:33 437.200
DOVE 4 17 Jan 16:46:59 16:51:38 36° 73° (ENE) 16:56:05 437.250
STARS 17 Jan 16:53:36 16:57:54 61° 285° (WNW) 17:02:12 437.465
JUGNU 17 Jan 16:54:39 16:59:16 23° 182° (S) 17:03:54 437.505
NOAA 15 17 Jan 16:58:13 17:03:20 52° 73° (ENE) 17:08:28 137.62
AUBIESAT-1 17 Jan 16:58:43 17:00:33 14° 295° (WNW) 17:02:21 437.475
CUBESAT XI-V 17 Jan 17:01:41 17:06:14 50° 286° (WNW) 17:10:43 437.345
BRITE-PL 17 Jan 17:09:10 17:13:34 23° 266° (W) 17:18:01 437.365/2234.400
BEESAT 2 17 Jan 17:19:07 17:22:54 49° 300° (WNW) 17:26:46 435.950
O/OREOS (USA 219) 17 Jan 17:19:20 17:23:30 37° 256° (WSW) 17:27:40 437.305
DANDE 17 Jan 17:26:01 17:27:47 11° 278° (W) 17:29:35 436.750
GOMX 1 17 Jan 17:28:59 17:33:53 33° 263° (W) 17:38:42 467.674
KKS-1 17 Jan 17:30:34 17:31:41 11° 294° (WNW) 17:32:48 437.445
HORYU 2 17 Jan 17:32:24 17:35:34 19° 264° (W) 17:38:45 437.375
CUTE-I 17 Jan 17:35:15 17:40:31 70° 258° (WSW) 17:45:50 437.470
CUTE 1.7 + AOD 2 17 Jan 17:42:33 17:44:44 14° 68° (ENE) 17:46:56 437.475
NOAA 18 17 Jan 17:55:46 18:01:17 83° 256° (WSW) 18:06:49 137.9125
HO-68 17 Jan 17:56:20 18:02:52 39° 68° (ENE) 18:09:26 435.675
SO-50 17 Jan 18:01:21 18:05:39 47° 246° (WSW) 18:09:55 436.795
CANX-2 17 Jan 18:09:13 18:13:03 34° 73° (ENE) 18:16:55 2200.000
SRMSAT 17 Jan 18:17:54 18:22:30 23° 175° (S) 18:27:05 437.500
Cubesat XI-IV 17 Jan 18:18:27 18:22:52 26° 263° (W) 18:27:17 437.490
CUBEBUG 2 17 Jan 18:20:14 18:22:36 15° 69° (ENE) 18:24:57 437.445
LilacSat-2 17 Jan 18:23:06 18:24:31 12° 267° (W) 18:25:57 437.200
Cosmos 2499 17 Jan 18:25:19 18:32:11 28° 86° (E) 18:38:43 435.465 / 435.565
DOVE 4 17 Jan 18:25:28 18:29:17 21° 264° (W) 18:32:58 437.250
SEEDS 17 Jan 18:27:06 18:30:47 31° 73° (ENE) 18:34:31 437.485
COMPASS 1 17 Jan 18:38:45 18:42:16 27° 72° (ENE) 18:45:49 437.405
CINEMA 3 17 Jan 18:38:54 18:43:25 60° 259° (W) 18:47:45 145.822/145.860
NOAA 15 17 Jan 18:40:24 18:43:20 15° 266° (W) 18:46:17 137.62
JUGNU 17 Jan 18:43:50 18:47:41 18° 192° (SSW) 18:51:32 437.505
AIST 2 17 Jan 18:49:42 18:52:53 22° 110° (ESE) 18:56:07 435.215
AAUSAT CUBESAT 2 17 Jan 18:53:09 18:56:46 30° 73° (ENE) 19:00:26 437.432
UWE-3 17 Jan 18:54:14 18:57:31 23° 71° (ENE) 19:00:47 435.000/436.395/437.385
FUNcube-1 17 Jan 19:00:07 19:02:11 14° 68° (ENE) 19:04:16 145.935
STRAND 1 17 Jan 19:08:06 19:13:15 85° 102° (ESE) 19:18:24 437.568
CUTE 1.7 + AOD 2 17 Jan 19:16:14 19:20:10 38° 262° (W) 19:24:10 437.475
GONETS M04 17 Jan 19:18:56 19:27:15 53° 90° (E) 19:35:37
ZACube-1 17 Jan 19:19:49 19:23:17 26° 72° (ENE) 19:26:45 437.345
HO-68 17 Jan 19:44:13 19:50:31 33° 262° (W) 19:56:54 435.675
CANX-2 17 Jan 19:46:36 19:48:58 15° 266° (W) 19:51:21 2200.000
CUBEBUG 2 17 Jan 19:55:04 19:58:55 34° 262° (W) 20:02:43 437.445
Oscar 11 17 Jan 20:00:59 20:05:15 76° 78° (ENE) 20:09:35 145.826/435.025
HUMSAT D 17 Jan 20:01:02 20:01:34 10° 67° (ENE) 20:02:05 437.325/437.525
SEEDS 17 Jan 20:03:52 20:06:30 16° 266° (W) 20:09:09 437.485
SRMSAT 17 Jan 20:06:34 20:11:05 22° 186° (S) 20:15:36 437.500
COMPASS 1 17 Jan 20:14:51 20:17:46 18° 265° (W) 20:20:42 437.405
Cosmos 2499 17 Jan 20:16:31 20:24:52 52° 280° (W) 20:32:43 435.465 / 435.565
PRISM 17 Jan 20:26:16 20:29:41 25° 97° (E) 20:33:05 437.425
AIST 2 17 Jan 20:27:48 20:31:12 25° 305° (NW) 20:34:40 435.215
AAUSAT CUBESAT 2 17 Jan 20:29:37 20:32:14 16° 266° (W) 20:34:53 437.432
UWE-3 17 Jan 20:30:42 20:33:52 21° 264° (W) 20:37:02 435.000/436.395/437.385
FUNcube-1 17 Jan 20:34:16 20:38:04 36° 262° (W) 20:41:53 145.935
DELFI C3 17 Jan 20:36:42 20:40:38 61° 76° (ENE) 20:44:36 145.870
ZACube-1 17 Jan 20:56:41 20:59:31 18° 265° (W) 21:02:22 437.345
ISS 17 Jan 21:13:28 21:15:26 15° 127° (SE) 21:17:23 145.825
GONETS M04 17 Jan 21:17:13 21:24:19 28° 287° (WNW) 21:31:31
UNISAT 6 17 Jan 21:29:46 21:34:00 43° 99° (E) 21:38:18 437.425
JAS-2 17 Jan 21:31:28 21:36:49 21° 94° (E) 21:42:21 435.910
HUMSAT D 17 Jan 21:32:44 21:36:40 48° 260° (W) 21:40:39 437.325/437.525
ESTCUBE 1 17 Jan 21:37:28 21:40:44 20° 69° (ENE) 21:44:00 437.505/2401.250
TIGRISAT 17 Jan 21:43:57 21:48:19 59° 101° (E) 21:52:47 435.000
BY70-1 17 Jan 21:46:54 21:49:34 44° 75° (ENE) 21:52:30 436.1900
SRMSAT 17 Jan 21:56:37 21:59:37 14° 195° (SSW) 22:02:38 437.500
ANTELSAT 17 Jan 21:58:22 22:02:48 85° 285° (WNW) 22:07:21 437.575/2403.000
PRISM 17 Jan 22:01:50 22:04:46 19° 290° (WNW) 22:07:41 437.425
VELOX 1 17 Jan 22:03:02 22:05:02 13° 67° (ENE) 22:07:03 145.980
POPSAT HIP 1 17 Jan 22:26:23 22:28:38 14° 94° (E) 22:30:51 437.405
DUCHIFAT 1 17 Jan 22:40:23 22:43:15 18° 95° (E) 22:46:08 145.980
DX 1 17 Jan 22:43:54 22:46:51 18° 68° (ENE) 22:49:46 434.975-435.025
NANOSAT C BR1 17 Jan 22:44:00 22:47:17 22° 96° (E) 22:50:34 145.865
ISS 17 Jan 22:48:39 22:51:39 34° 320° (NW) 22:54:40 145.825
UKube-1 17 Jan 22:49:33 22:51:53 14° 67° (ENE) 22:54:15 .
SPROUT 17 Jan 22:51:43 22:55:31 32° 73° (ENE) 22:59:19 437.525
RS-15 17 Jan 22:52:56 23:04:13 58° 110° (ESE) 23:16:00 29.354- 29.394
CUBEBUG 1 17 Jan 22:54:21 22:58:47 90° 100° (E) 23:03:13 437.445
AISAT 17 Jan 23:03:00 23:07:26 72° 77° (ENE) 23:11:52 437.250
UNISAT 6 17 Jan 23:08:02 23:10:19 14° 292° (WNW) 23:12:37 437.425
ESTCUBE 1 17 Jan 23:13:18 23:17:16 30° 263° (W) 23:21:17 437.505/2401.250
JAS-2 17 Jan 23:14:52 23:21:59 65° 286° (WNW) 23:29:39 435.910
TIGRISAT 17 Jan 23:23:58 23:24:29 10° 294° (WNW) 23:25:00 435.000
BUGSAT 1 17 Jan 23:26:41 23:29:44 21° 96° (E) 23:32:48 437.445
QB50P1 17 Jan 23:33:41 23:37:54 77° 284° (WNW) 23:42:07 145.935-145.965
VELOX 1 17 Jan 23:36:45 23:41:02 47° 260° (W) 23:45:20 145.980
POLYITAN 1 17 Jan 23:36:54 23:41:06 69° 284° (WNW) 23:45:19 437.675
QB50P2 17 Jan 23:38:05 23:42:14 62° 285° (WNW) 23:46:25 145.880/145.840
50 SAT 17 Jan 23:43:53 23:47:15 40° 261° (W) 23:50:39 437.505
AO-85 17 Jan 23:44:26 23:48:18 66° 244° (WSW) 23:52:11 145.980
POPSAT HIP 1 18 Jan 00:00:37 00:04:28 36° 287° (WNW) 00:08:19 437.405
DUCHIFAT 1 18 Jan 00:15:19 00:18:53 28° 288° (WNW) 00:22:28 145.980
AIST 1 18 Jan 00:16:08 00:19:01 17° 76° (ENE) 00:21:53
PCSat 18 Jan 00:16:17 00:21:30 51° 111° (ESE) 00:26:45 145.827
DX 1 18 Jan 00:18:50 00:22:44 32° 262° (W) 00:26:40 434.975-435.025
NANOSAT C BR1 18 Jan 00:19:33 00:22:52 23° 289° (WNW) 00:26:11 145.865
UKube-1 18 Jan 00:23:30 00:27:32 39° 261° (W) 00:31:36 .
SPROUT 18 Jan 00:28:52 00:31:28 16° 265° (W) 00:34:04 437.525
TISAT 1 18 Jan 00:29:28 00:33:35 62° 76° (ENE) 00:37:43 437.305
YUBILEINY 18 Jan 00:48:08 00:56:30 45° 78° (ENE) 01:04:44 435.215
ITUPSAT 1 18 Jan 00:49:23 00:52:39 19° 68° (ENE) 00:55:56 437.325
BUGSAT 1 18 Jan 01:01:50 01:04:59 22° 289° (WNW) 01:08:08 437.445
Gurwin Techsat 1B 18 Jan 01:02:02 01:06:44 32° 98° (E) 01:11:25 435.225
BEESAT 3 18 Jan 01:02:58 01:05:58 20° 54° (NE) 01:08:57 437.485
RS-15 18 Jan 01:06:11 01:17:04 40° 311° (NW) 01:28:26 29.354- 29.394
Oscar 19 18 Jan 01:10:11 01:15:22 78° 103° (ESE) 01:20:29 437.125/150
PHONESAT 2.4 18 Jan 01:15:27 01:17:17 20° 146° (SE) 01:19:07 2401.200-2431.200
BEESAT 18 Jan 01:24:28 01:29:00 46° 73° (ENE) 01:33:33 436.000
SWISSCUBE 18 Jan 01:25:41 01:30:19 55° 74° (ENE) 01:34:58 437.505
Cosmos 2491 18 Jan 01:29:49 01:38:07 52° 90° (E) 01:46:26 435.465 / 435.565
BEESAT 2 18 Jan 01:41:24 01:44:37 22° 55° (NE) 01:47:48 435.950
MOZHAYETS 4 18 Jan 01:45:57 01:49:17 20° 69° (ENE) 01:52:38
ITAMSAT 1 18 Jan 01:48:36 01:51:39 16° 94° (E) 01:54:42 435.822/435.867
AIST 1 18 Jan 01:52:59 01:56:34 27° 270° (W) 02:00:08
Cosmos 2504 18 Jan 01:53:15 02:00:32 60° 81° (E) 02:07:33 435.465 / 435.565
PCSat 18 Jan 02:01:25 02:05:10 19° 307° (NW) 02:08:57 145.827
AUBIESAT-1 18 Jan 02:04:53 02:07:53 18° 66° (ENE) 02:10:47 437.475
ITUPSAT 1 18 Jan 02:25:49 02:30:10 36° 261° (W) 02:34:33 437.325
CUSAT 1 18 Jan 02:37:21 02:41:27 38° 89° (E) 02:46:44 437.405
BEESAT 3 18 Jan 02:40:09 02:43:32 27° 248° (WSW) 02:46:54 437.485
Gurwin Techsat 1B 18 Jan 02:42:10 02:46:29 26° 291° (WNW) 02:50:48 435.225
KKS-1 18 Jan 02:45:05 02:48:55 29° 71° (ENE) 02:52:45 437.445
YUBILEINY 18 Jan 02:45:24 02:52:55 33° 274° (W) 03:00:23 435.215
PHONESAT 2.4 18 Jan 02:49:15 02:51:22 31° 340° (NNW) 02:53:30 2401.200-2431.200
Oscar 19 18 Jan 02:53:20 02:53:56 10° 297° (WNW) 02:54:32 437.125/150
M-CUBED/EXP-1 PRIME 18 Jan 02:58:22 03:02:56 79° 255° (WSW) 03:07:14 437.505
AO-7 18 Jan 03:03:23 03:11:36 57° 103° (ESE) 03:19:42 29.400- 29.500
BEESAT 18 Jan 03:04:34 03:06:57 14° 266° (W) 03:09:21 436.000
SWISSCUBE 18 Jan 03:06:47 03:08:22 11° 267° (W) 03:09:56 437.505
BEESAT 2 18 Jan 03:19:01 03:22:18 24° 249° (WSW) 03:25:33 435.950
MOZHAYETS 4 18 Jan 03:22:13 03:26:12 30° 263° (W) 03:30:13
ITAMSAT 1 18 Jan 03:26:19 03:31:19 49° 287° (WNW) 03:36:19 435.822/435.867
Cosmos 2491 18 Jan 03:28:01 03:35:10 28° 286° (WNW) 03:42:24 435.465 / 435.565
RS-15 18 Jan 03:29:33 03:34:37 13° 342° (NNW) 03:39:43 29.354- 29.394
AUBIESAT-1 18 Jan 03:38:03 03:42:02 32° 256° (WSW) 03:45:52 437.475
BRITE-PL 18 Jan 03:41:29 03:44:18 15° 91° (E) 03:47:00 437.365/2234.400
STARS 18 Jan 03:45:17 03:49:37 64° 76° (ENE) 03:53:58 437.465
Cosmos 2504 18 Jan 03:48:30 03:53:05 18° 278° (W) 03:57:36 435.465 / 435.565
CUBESAT XI-V 18 Jan 03:59:47 04:04:28 89° 281° (WNW) 04:09:12 437.345
CUSAT 1 18 Jan 04:20:29 04:23:45 18° 294° (WNW) 04:27:36 437.405
KKS-1 18 Jan 04:22:11 04:25:26 20° 264° (W) 04:28:41 437.445
PHONESAT 2.4 18 Jan 04:24:51 04:25:58 12° 355° (N) 04:27:04 2401.200-2431.200
